Stations météo

Publicité
Dijon, France (7280): Température de l'air & dewpoint: 15.01.2018 15:00:00 - 21.01.2018 15:00:00 (CET)Dijon, France (7280): Température de l'air 5cm: 15.01.2018 15:00:00 - 21.01.2018 15:00:00 (CET)Dijon, France (7280): Température de l'air -20cm & Température de l'air -100cm: 15.01.2018 15:00:00 - 21.01.2018 15:00:00 (CET)Dijon, France (7280): Vitesse du vent & gusts: 15.01.2018 15:00:00 - 21.01.2018 15:00:00 (CET)Dijon, France (7280): Direction du vent: 15.01.2018 15:00:00 - 21.01.2018 15:00:00 (CET)Dijon, France (7280): reduced air pressure: 15.01.2018 15:00:00 - 21.01.2018 15:00:00 (CET)Dijon, France (7280): visibility: 15.01.2018 15:00:00 - 21.01.2018 15:00:00 (CET)Dijon, France (7280): Ensoleillement: 15.01.2018 15:00:00 - 21.01.2018 15:00:00 (CET)Dijon, France (7280): Quantités de précipitations: 15.01.2018 15:00:00 - 21.01.2018 15:00:00 (CET)
Date & Time tt [°C] td [°C] tt 5cm [°C] tt -20cm [°C] tt -100cm [°C] ff [km/h] ff [knt] fx [km/h] fx [knt] dd ppp [hPa] vv [km] sd [min] rr [mm]
21.01.2018 15:00:00 5,3 4,7 5,6 6,3 8,6 9 5 13 7 SE 1019,3 4,1 0 1,4
21.01.2018 14:00:00 5,4 4,4 5,6 6,3 8,6 9 5 11 6 SE 1019,6 5 0 0,8
21.01.2018 13:00:00 5,9 3,7 6,4 6,3 8,6 2 1 5 3 SE 1019,6 26 0 0,0
21.01.2018 12:00:00 5,6 3,6 6,3 6,2 8,6 3 1 4 2 SE 1019,9 20 0 0,0
21.01.2018 11:00:00 5,3 3,6 5,2 6,2 8,6 3 1 10 5 N 1019,7 27 0 0,0
21.01.2018 10:00:00 5,2 3,2 5,2 6,2 8,6 5 3 23 12 NE 1018,9 31 0 0,0
21.01.2018 09:00:00 5,7 3,5 5,3 6,2 8,6 19 10 29 15 N 1017,8 49 0 0,0
21.01.2018 08:00:00 6,6 4,1 5,6 6,2 8,7 13 7 29 15 NNW 1016,3 60 0 0,0
21.01.2018 07:00:00 6,8 5,1 6,0 6,1 8,6 12 7 21 11 NW 1015,2 55 0 0,0
21.01.2018 06:00:00 7,6 4,9 6,2 6,1 8,7 15 8 28 15 WNW 1013,9 60 0 0,0
21.01.2018 05:00:00 7,8 5,4 6,5 6,0 8,7 19 10 39 21 NW 1012,7 60 0 0,4
21.01.2018 04:00:00 7,9 5,9 7,0 6,0 8,7 21 11 35 19 NW 1011,3 3,5 0 2,4
21.01.2018 03:00:00 8,4 7,0 7,4 5,9 8,7 13 7 20 11 NW 1010,3 3,5 0 1,6
21.01.2018 02:00:00 9,1 6,5 7,4 5,9 8,7 9 5 40 21 WNW 1008,8 16 0 0,0
21.01.2018 01:00:00 9,6 6,3 7,5 5,8 8,7 24 13 39 21 WNW 1007,0 60 0 0,2
21.01.2018 00:00:00 9,3 7,1 7,2 5,7 8,7 15 8 46 25 NW 1006,1 12 0 0,2
20.01.2018 23:00:00 9,6 6,7 8,1 5,7 8,7 36 19 72 39 NW 1004,6 9 0 1,2
20.01.2018 22:00:00 10,7 9,0 6,9 5,7 8,7 15 8 35 19 NW 1003,4 60 0 1,0
20.01.2018 21:00:00 7,2 7,1 5,5 5,7 8,7 16 9 26 14 S 1003,8 3,6 0 1,0
20.01.2018 20:00:00 5,8 5,7 5,1 5,7 8,7 22 12 32 17 S 1003,8 5 0 0,2
20.01.2018 19:00:00 5,1 4,8 4,5 5,7 8,7 23 12 36 19 S 1004,2 4,9 0 0,2
20.01.2018 18:00:00 4,6 4,3 4,2 5,7 8,7 27 15 41 22 S 1004,2 12 0 0,2
20.01.2018 17:00:00 4,2 3,8 4,0 5,7 8,7 31 17 43 23 SSW 1004,0 12 0 0,6
20.01.2018 16:00:00 3,8 3,2 3,8 5,7 8,7 29 16 56 30 SSW 1004,3 6 0 1,0
20.01.2018 15:00:00 3,5 2,8 3,3 5,8 8,7 38 21 58 32 S 1004,6 4,5 0 1,1
20.01.2018 14:00:00 3,1 2,2 3,3 5,8 8,7 40 22 64 35 S 1005,4 5 0 1,2
20.01.2018 13:00:00 3,2 2,2 3,0 5,8 8,7 31 17 58 32 S 1006,9 12 0 2,4
20.01.2018 12:00:00 3,5 2,3 3,5 5,9 8,7 36 19 58 31 S 1009,2 11 0 1,0
20.01.2018 11:00:00 3,6 2,4 3,6 5,9 8,7 35 19 53 28 S 1011,5 14 0 0,6
20.01.2018 10:00:00 3,8 2,6 3,5 5,9 8,7 25 14 36 19 S 1013,1 15 0 0,4
20.01.2018 09:00:00 3,8 2,5 2,7 6,0 8,7 24 13 39 21 S 1014,1 27 0 0,0
20.01.2018 08:00:00 3,1 2,4 2,1 6,0 8,7 16 9 28 15 S 1015,1 20 0 0,0
20.01.2018 07:00:00 2,4 1,8 1,3 6,1 8,7 15 8 28 15 SSW 1016,0 16 0 0,0
20.01.2018 06:00:00 1,9 1,3 0,7 6,1 8,7 15 8 22 12 S 1016,7 18 0 0,0
20.01.2018 05:00:00 1,4 1,0 0,1 6,2 8,7 16 8 22 12 S 1017,3 13 0 0,0
20.01.2018 04:00:00 1,2 0,8 0,0 6,2 8,7 12 6 22 12 S 1018,1 9 0 0,0
20.01.2018 03:00:00 1,5 1,1 0,4 6,3 8,7 16 8 24 13 SSW 1018,4 9 0 0,0
20.01.2018 02:00:00 1,8 1,2 0,7 6,4 8,7 19 10 27 14 SSW 1018,6 10 0 0,0
20.01.2018 01:00:00 2,0 1,4 -0,2 6,5 8,7 16 8 23 12 SSW 1019,0 14 0 0,0
20.01.2018 00:00:00 0,7 0,0 -0,9 6,5 8,7 8 4 16 9 SSE 1019,4 19 0 0,0
19.01.2018 23:00:00 1,9 0,0 -0,1 6,5 8,7 12 6 20 11 SSW 1019,1 43 0 0,0
19.01.2018 22:00:00 2,6 0,5 -0,2 6,6 8,7 10 5 16 9 SW 1018,8 60 0 0,0
19.01.2018 21:00:00 3,4 0,6 0,1 6,6 8,7 11 6 22 12 SW 1018,0 60 0 0,0
19.01.2018 20:00:00 3,0 0,6 0,9 6,6 8,7 10 5 22 12 W 1017,3 60 0 0,0
19.01.2018 19:00:00 4,7 1,5 1,7 6,6 8,7 15 8 27 15 WSW 1016,6 59 0 0,0
19.01.2018 18:00:00 4,2 1,6 2,1 6,6 8,7 11 6 27 15 SSW 1015,7 60 0 0,0
19.01.2018 17:00:00 5,2 2,0 4,1 6,6 8,7 19 10 26 14 SSW 1015,4 57 26 0,0
19.01.2018 16:00:00 6,0 2,3 6,2 6,5 8,7 16 9 26 14 SW 1015,4 40 2 0,0
19.01.2018 15:00:00 5,7 1,6 6,0 6,5 8,7 18 10 42 23 SW 1015,3 60 0 0,0
19.01.2018 14:00:00 7,4 1,9 7,9 6,5 8,7 18 10 27 14 SW 1015,1 58 0 0,0
19.01.2018 13:00:00 7,4 1,7 8,9 6,5 8,7 16 9 25 13 SW 1015,6 56 3 0,0
19.01.2018 12:00:00 6,9 3,9 7,5 6,5 8,7 16 9 23 12 SSW 1016,3 48 1 0,0
19.01.2018 11:00:00 6,2 3,4 7,0 6,5 8,7 10 6 17 9 S 1016,5 49 11 0,0
19.01.2018 10:00:00 5,3 3,1 1,5 6,6 8,7 8 5 16 8 SE 1016,9 41 17 0,0
19.01.2018 09:00:00 4,0 1,4 1,4 6,6 8,7 11 6 16 9 SW 1016,3 58 2 0,0
19.01.2018 08:00:00 5,1 2,1 2,1 6,6 8,8 11 6 16 9 S 1016,0 60 0 0,0
19.01.2018 07:00:00 4,6 1,8 1,6 6,6 8,7 8 5 29 16 S 1015,4 60 0 0,0
19.01.2018 06:00:00 5,4 2,2 2,2 6,6 8,8 10 6 24 13 W 1014,9 60 0 0,0
19.01.2018 05:00:00 5,8 3,3 2,8 6,6 8,7 8 4 29 16 W 1014,0 60 0 0,0
19.01.2018 04:00:00 6,3 3,6 4,8 6,6 8,7 17 9 32 17 W 1013,3 60 0 0,2
19.01.2018 03:00:00 6,2 3,9 5,2 6,6 8,7 19 10 45 24 W 1013,1 17 0 0,0
19.01.2018 02:00:00 7,0 5,1 5,3 6,5 8,7 0 0 27 14 N 1012,4 60 0 0,0
19.01.2018 01:00:00 8,0 5,1 6,0 6,5 8,8 18 10 37 20 W 1012,1 14 0 0,2
19.01.2018 00:00:00 8,7 4,7 5,9 6,4 8,8 16 9 56 31 W 1011,4 46 0 0,0
18.01.2018 23:00:00 8,9 5,3 6,6 6,4 8,8 19 10 53 29 W 1010,7 52 0 1,6
18.01.2018 22:00:00 8,7 8,1 8,4 6,4 8,8 29 16 48 26 S 1009,5 15 0 0,0
18.01.2018 21:00:00 8,8 8,2 8,0 6,3 8,8 29 16 46 25 S 1009,5 18 0 0,2
18.01.2018 20:00:00 8,3 7,7 7,8 6,3 8,8 28 15 46 25 S 1010,2 34 0 0,0
18.01.2018 19:00:00 8,0 7,6 7,7 6,2 8,8 30 16 49 26 S 1010,5 14 0 0,0
18.01.2018 18:00:00 7,9 7,3 7,4 6,1 8,8 33 18 48 26 S 1010,7 20 0 0,0
18.01.2018 17:00:00 7,6 6,8 7,0 6,1 8,8 34 19 47 25 S 1010,8 12 0 0,0
18.01.2018 16:00:00 6,9 6,2 6,8 6,0 8,8 28 15 48 26 S 1011,2 30 0 0,4
18.01.2018 15:00:00 7,0 6,3 7,0 6,0 8,8 32 18 47 25 S 1011,6 14 0 0,2
18.01.2018 14:00:00 8,0 7,1 7,8 6,0 8,8 33 18 49 26 S 1012,2 19 0 0,0
18.01.2018 13:00:00 7,0 6,3 7,6 6,0 8,8 27 15 48 26 S 1013,2 26 0 0,0
18.01.2018 12:00:00 7,4 6,2 6,0 6,0 8,8 31 17 50 27 S 1013,8 34 0 0,0
18.01.2018 11:00:00 5,8 4,9 5,4 6,0 8,8 32 17 47 26 S 1014,2 12 0 0,4
18.01.2018 10:00:00 5,3 4,7 4,8 5,9 8,8 32 17 49 26 S 1013,9 9 0 1,3
18.01.2018 09:00:00 4,7 4,1 4,7 5,9 8,8 31 17 55 30 S 1014,2 6 0 0,8
18.01.2018 08:00:00 4,9 4,3 4,7 6,0 8,8 35 19 57 31 S 1014,0 7 0 1,4
18.01.2018 07:00:00 5,0 4,1 4,3 6,0 8,8 40 22 59 32 S 1014,2 11 0 1,0
18.01.2018 06:00:00 4,5 3,6 4,3 6,0 8,8 31 17 48 26 S 1014,8 12 0 1,0
18.01.2018 05:00:00 4,8 3,6 4,2 6,0 8,8 28 15 43 23 S 1015,8 13 0 0,8
18.01.2018 04:00:00 4,8 3,0 4,0 6,1 8,8 29 16 44 24 SSW 1016,7 15 0 0,2
18.01.2018 03:00:00 4,8 2,5 3,9 6,1 8,8 28 15 45 24 S 1017,6 32 0 0,0
18.01.2018 02:00:00 4,8 1,8 3,8 6,1 8,8 27 14 42 23 SSW 1018,7 32 0 0,0
18.01.2018 01:00:00 4,5 1,2 3,1 6,2 8,8 24 13 34 18 SSW 1020,0 42 0 0,0
18.01.2018 00:00:00 4,2 0,5 3,0 6,2 8,8 21 11 30 16 SSW 1019,6 43 0 0,0
17.01.2018 23:00:00 4,0 0,3 1,4 6,3 8,8 19 11 28 15 S 1020,3 41 0 0,0
17.01.2018 22:00:00 3,4 -0,1 0,6 6,3 8,8 17 9 23 13 SSW 1019,8 44 0 0,0
17.01.2018 21:00:00 3,2 -0,3 0,7 6,3 8,8 13 7 24 13 SSW 1020,0 44 0 0,0
17.01.2018 20:00:00 3,5 -0,5 0,2 6,4 8,8 15 8 21 11 SSW 1019,9 46 0 0,0
17.01.2018 19:00:00 3,1 -1,3 -0,6 6,4 8,8 10 5 30 16 S 1019,5 48 0 0,0
17.01.2018 18:00:00 5,3 -1,4 3,0 6,4 8,8 20 11 34 19 W 1018,8 56 0 0,0
17.01.2018 17:00:00 6,0 -1,2 4,9 6,4 8,8 20 11 40 22 W 1018,1 59 45 0,0
17.01.2018 16:00:00 6,5 -1,7 6,0 6,4 8,8 27 15 54 29 W 1017,4 38 58 0,0
17.01.2018 15:00:00 6,8 -1,6 7,6 6,4 8,8 29 16 55 30 W 1016,3 41 60 0,0
17.01.2018 14:00:00 6,8 -1,1 8,5 6,4 8,8 29 15 57 31 W 1016,3 60 58 0,0
17.01.2018 13:00:00 6,0 0,5 5,0 6,4 8,8 22 12 56 31 WNW 1016,4 59 42 0,0
17.01.2018 12:00:00 6,0 -0,3 5,9 6,5 8,8 32 17 54 29 WNW 1015,5 57 40 0,0
17.01.2018 11:00:00 5,1 1,2 4,0 6,5 8,8 26 14 46 25 W 1014,9 60 30 0,0
17.01.2018 10:00:00 4,6 0,5 2,7 6,6 8,8 24 13 51 28 WSW 1013,3 55 7 0,0
17.01.2018 09:00:00 4,1 0,1 2,7 6,6 8,8 24 13 51 28 WSW 1012,0 19 0 0,0
17.01.2018 08:00:00 4,5 -0,7 2,9 6,7 8,8 31 17 53 29 W 1010,8 60 0 0,0
17.01.2018 07:00:00 4,7 -0,3 2,4 6,7 8,8 33 18 63 34 W 1009,9 60 0 0,0
17.01.2018 06:00:00 4,8 0,0 2,6 6,8 8,9 32 18 67 36 W 1008,3 60 0 0,0
17.01.2018 05:00:00 4,8 1,5 2,3 6,8 8,8 25 14 44 24 WSW 1007,4 60 0 0,2
17.01.2018 04:00:00 4,6 2,3 2,8 6,8 8,9 17 9 84 45 WNW 1007,2 58 0 0,6
17.01.2018 03:00:00 4,1 2,1 2,7 6,8 8,9 27 15 68 37 W 1006,2 60 0 1,8
17.01.2018 02:00:00 7,1 3,2 4,7 6,8 8,9 29 16 54 29 WSW 1004,9 12 0 0,2
17.01.2018 01:00:00 7,1 3,3 4,6 6,8 8,9 27 14 42 23 SW 1004,2 20 0 0,0
17.01.2018 00:00:00 7,5 3,5 5,5 6,8 8,9 26 14 46 25 WSW 1005,1 51 0 0,0
16.01.2018 23:00:00 7,9 3,9 4,7 6,8 8,9 21 12 34 18 WSW 1005,0 46 0 0,0
16.01.2018 22:00:00 6,9 4,4 4,7 6,8 8,9 18 10 41 22 SW 1005,5 59 0 0,2
16.01.2018 21:00:00 6,3 4,1 5,5 6,8 8,9 30 16 49 27 W 1006,7 4,4 0 2,6
16.01.2018 20:00:00 7,7 5,2 6,4 6,8 8,9 21 11 92 50 WSW 1006,1 11 0 1,4
16.01.2018 19:00:00 9,9 3,8 7,5 6,7 8,9 25 14 51 28 WSW 1005,2 59 0 0,0
16.01.2018 18:00:00 9,9 5,1 8,0 6,6 8,9 33 18 53 28 WSW 1004,9 60 0 0,0
16.01.2018 17:00:00 10,1 4,5 8,2 6,5 8,9 22 12 50 27 WSW 1004,9 55 26 0,0
16.01.2018 16:00:00 10,9 4,8 9,6 6,5 8,9 21 11 50 27 W 1005,5 45 44 0,0
16.01.2018 15:00:00 12,0 4,9 10,4 6,4 8,9 32 18 59 32 W 1005,2 20 56 0,0
16.01.2018 14:00:00 10,4 6,5 10,0 6,3 8,9 33 18 53 28 WSW 1006,6 18 38 0,2
16.01.2018 13:00:00 9,5 7,1 8,4 6,2 8,9 26 14 55 30 W 1007,1 8 23 0,6
16.01.2018 12:00:00 10,4 7,1 8,6 6,2 8,9 23 12 59 32 SW 1006,9 20 22 0,2
16.01.2018 11:00:00 10,1 6,4 8,2 6,1 8,9 29 16 54 29 WSW 1006,7 56 0 0,0
16.01.2018 10:00:00 8,8 7,4 7,7 6,1 8,9 22 12 31 17 SSW 1006,6 17 0 1,6
16.01.2018 09:00:00 8,1 7,2 7,2 6,1 8,9 19 10 35 19 SSW 1007,1 10 0 0,4
16.01.2018 08:00:00 8,0 6,8 6,9 6,0 9,0 23 13 52 28 SSW 1006,9 60 0 0,0
16.01.2018 07:00:00 7,8 6,9 6,7 6,0 9,0 25 14 42 23 SSW 1006,5 30 0 0,0
16.01.2018 06:00:00 7,7 6,6 6,9 6,0 9,0 29 16 46 25 SSW 1006,1 60 0 0,0
16.01.2018 05:00:00 7,4 6,5 6,9 5,9 8,9 32 18 53 29 S 1006,6 39 0 0,4
16.01.2018 04:00:00 7,4 6,5 6,5 5,9 9,0 32 18 50 27 S 1007,0 20 0 0,0
16.01.2018 03:00:00 6,8 6,1 6,2 5,9 9,0 25 14 46 25 S 1007,4 20 0 0,2
16.01.2018 02:00:00 6,6 5,9 6,1 5,9 9,0 29 16 45 24 SSW 1008,0 9 0 0,2
16.01.2018 01:00:00 6,4 5,7 6,0 5,8 9,0 31 17 50 27 SSW 1008,6 10 0 0,4
16.01.2018 00:00:00 6,4 5,5 5,8 5,8 9,0 32 17 47 26 SSW 1009,2 13 0 0,2
15.01.2018 23:00:00 6,3 5,1 5,7 5,7 9,0 36 19 56 30 SSW 1009,2 11 0 0,2
15.01.2018 22:00:00 6,4 4,9 5,5 5,7 8,9 38 21 59 32 SSW 1009,3 29 0 0,0
15.01.2018 21:00:00 6,1 4,6 5,4 5,7 9,0 40 22 59 32 SSW 1009,7 36 0 0,0
15.01.2018 20:00:00 6,0 4,5 5,4 5,6 9,0 43 23 69 37 SSW 1010,0 19 0 0,2
15.01.2018 19:00:00 6,6 4,1 5,4 5,6 9,0 39 21 65 35 S 1009,5 53 0 0,6
15.01.2018 18:00:00 7,7 3,5 5,3 5,5 9,0 39 21 58 31 SSW 1010,2 36 0 0,4
15.01.2018 17:00:00 7,0 3,4 5,4 5,5 9,0 30 16 51 27 SSW 1011,5 15 0 0,2
15.01.2018 16:00:00 6,6 4,1 5,7 5,4 9,0 25 14 41 22 SSW 1012,8 11 0 0,2
15.01.2018 15:00:00 6,7 3,8 6,4 5,4 9,0 22 12 31 17 S 1014,1 15 0 0,0

tt = Température de l'air
td = dewpoint
tt 5cm = Température de l'air 5cm
tt -20cm = Température de l'air -20cm
tt -100cm = Température de l'air -100cm
ff = Vitesse du vent
fx = gusts
dd = Direction du vent
ppp = reduced air pressure
vv = visibility
sd = Ensoleillement
rr = Quantités de précipitations

stations d'obs. à proximité